Flag for French Polynesia Weather past 2 weeks in Papeete, Tahiti, French Polynesia

Now
75 °F

Passing clouds.


Feels Like: 75 °F
Forecast: 75 / 83 °F
Wind: 2 mph from East

Location: Tahiti-Faaa

Current Time: Sep 16, 2014 at 7:41:39 AM

Latest Report: Sep 16, 2014 at 7:00 AM


Visibility: N/A

Pressure: 30.01 "Hg

Humidity: 83%

Dew point: 70 °F

Location of PapeeteLocation

Historic Weather in Papeete — Graph

°F

Papeete temperature yesterday

Maximum temperature yesterday: 84 °F (at 12:00 PM)
Minimum temperature yesterday: 73 °F (at 5:30 AM)
Average temperature yesterday: 79 °F

Past Weeks' High & Low Weather Summary

 TemperatureHumidityPressure
High86 °F (Sep 6, 1:30 PM)94% (Sep 9, 12:00 AM)30.04 "Hg (Sep 9, 12:00 AM)
Low72 °F (Sep 10, 2:00 AM)55% (Sep 1, 2:30 PM)29.83 "Hg (Sep 12, 3:00 PM)
Average78 °F75%29.93 "Hg
* Reported Sep 1 6:00 AM — Sep 16 6:30 AM, Papeete, Weather by CustomWeather, © 2014

Note: Actual official high and low records may vary slightly from our data, if they occured in-between our weather recording intervals... More about our weather records

Advertising

Papeete weather history for previous 24 hours

 ConditionsComfort  
Time TempWeatherWind HumidityBarometerVisibility
6:30 AM
Sep 16
73 °FPassing clouds.1 mph83%29.98 "HgN/A
6:00 AM72 °FPassing clouds.2 mph88%29.98 "HgN/A
5:30 AM73 °FPassing clouds.No wind83%29.98 "HgN/A
5:00 AM73 °FPassing clouds.No wind83%29.95 "HgN/A
4:30 AM73 °FMild.2 mph83%29.95 "HgN/A
4:00 AM73 °FPassing clouds.2 mph83%29.95 "HgN/A
3:30 AM73 °FPassing clouds.No wind83%29.95 "HgN/A
3:00 AM73 °FPassing clouds.3 mph83%29.92 "HgN/A
2:30 AM73 °FPassing clouds.3 mph83%29.92 "HgN/A
2:00 AM73 °FPassing clouds.3 mph83%29.95 "HgN/A
1:30 AM73 °FPassing clouds.3 mph83%29.95 "HgN/A
1:00 AM75 °FPassing clouds.3 mph78%29.95 "HgN/A
12:30 AM75 °FPassing clouds.2 mph78%29.95 "HgN/A
12:00 AM77 °FPassing clouds.3 mph79%29.98 "HgN/A
11:30 PM
Sep 15
77 °FPassing clouds.2 mph79%29.98 "HgN/A
11:00 PM79 °FPassing clouds.5 mph74%29.98 "HgN/A
10:30 PM79 °FPassing clouds.6 mph74%29.98 "HgN/A
10:00 PM79 °FPassing clouds.1 mph74%29.98 "HgN/A
9:30 PM79 °FPassing clouds.2 mph74%29.98 "HgN/A
9:00 PM79 °FPassing clouds.5 mph74%29.98 "HgN/A
8:30 PM79 °FPassing clouds.2 mph74%29.95 "HgN/A
8:00 PM79 °FPassing clouds.No wind70%29.95 "HgN/A
7:30 PM79 °FPassing clouds.No wind70%29.95 "HgN/A
7:00 PM79 °FPassing clouds.2 mph70%29.95 "HgN/A
6:30 PM79 °FPassing clouds.6 mph74%29.92 "HgN/A
6:00 PM79 °FPassing clouds.7 mph74%29.92 "HgN/A
5:30 PM81 °FScattered clouds.10 mph70%29.92 "HgN/A
5:00 PM82 °FPartly sunny.5 mph66%29.92 "HgN/A
4:30 PM82 °FPartly sunny.2 mph66%29.89 "HgN/A
4:00 PM82 °FPartly sunny.7 mph66%29.89 "HgN/A
3:00 PM82 °FPartly sunny.9 mph66%29.89 "HgN/A
2:30 PM82 °FPartly sunny.8 mph66%29.89 "HgN/A
2:00 PM84 °FPartly sunny.6 mph66%29.89 "HgN/A
1:30 PM84 °FScattered clouds.6 mph66%29.89 "HgN/A
1:00 PM84 °FScattered clouds.6 mph62%29.92 "HgN/A
12:30 PM82 °FScattered clouds.6 mph66%29.92 "HgN/A
12:00 PM84 °FScattered clouds.5 mph66%29.92 "HgN/A
11:30 AM82 °FScattered clouds.7 mph70%29.92 "HgN/A
11:00 AM82 °FScattered clouds.8 mph70%29.95 "HgN/A
10:30 AM82 °FScattered clouds.5 mph70%29.95 "HgN/A
10:00 AM82 °FScattered clouds.2 mph70%29.95 "HgN/A
9:30 AM82 °FScattered clouds.3 mph70%29.95 "HgN/A
9:00 AM81 °FScattered clouds.3 mph74%29.95 "HgN/A
8:30 AM81 °FScattered clouds.5 mph74%29.95 "HgN/A
8:00 AM79 °FScattered clouds.7 mph79%29.95 "HgN/A
7:30 AM77 °FScattered clouds.No wind79%29.95 "HgN/A
7:00 AM75 °FScattered clouds.3 mph83%29.92 "HgN/A
Weather by CustomWeather, © 2014

See weather overviewHow to use our weather pages